Location: Archemont
(49.1579°N, 1.7598°E)
Time: 10:21:52
(UTC+00:00)

deb Explorer IX - Pass Details

Date: 15 April 2024
Orbit: 513 x 891 km, 38.7° (Epoch: 23 May)

Event Time Altitude Azimuth Distance (km) Brightness Sun altitude
Rises 17:04:18 0° 262° (W) 3,473 ? 15.6°
Reaches altitude 10° 17:07:34 10° 247° (WSW) 2,488 ? 15.0°
Maximum altitude 17:11:47 20° 202° (SSW) 1,789 ? 14.3°
Drops below altitude 10° 17:15:45 10° 156° (SSE) 2,316 ? 13.7°
Sets 17:18:39 0° 139° (SE) 3,164 ? 13.2°
